AirNav   Air Wisconsin pilot careers
 
 1092 users online  

KDRP Delta Regional Airport
Colt, Arkansas, USA

GOING TO COLT?


FAA INFORMATION EFFECTIVE 08 NOVEMBER 2018

Location

FAA Identifier: DRP
Lat/Long: 35-07-12.2000N / 090-49-35.4000W
35-07.203333N / 090-49.590000W
35.1200556 / -90.8265000
(estimated)
Elevation: 239 ft. / 72.8 m (surveyed)
Variation: 01W (2015)
From city: 1 mile SW of COLT, AR
Time zone: UTC -6 (UTC -5 during Daylight Saving Time)
Zip code: 72326

Airport Operations

Airport use: Open to the public
Activation date: 04/2014
Control tower: no
ARTCC: MEMPHIS CENTER
FSS: JONESBORO FLIGHT SERVICE STATION
NOTAMs facility: JBR (NOTAM-D service available)
Attendance: UNATNDD
Wind indicator: lighted
Segmented circle: yes
Lights: ACTVT HIRL RY 18/36; REIL RYS 18 & 36 - CTAF. PAPI RYS 18 & 36 OPERS CONTINUOUSLY.
Beacon: white-green (lighted land airport)
Operates sunset to sunrise.

Airport Communications

CTAF/UNICOM: 123.0
  • APCH/DEP SVC PRVDD BY MEMPHIS ARTCC ON FREQS 135.3/335.8 (BRINKLEY RCAG).

Nearby radio navigation aids

VOR radial/distance  VOR name  Freq  Var
GQEr227/21.8GILMORE VOR/DME113.0004E
UJMr346/33.5MARVELL VOR/DME109.6001E

Airport Services

Fuel available: 100LL
FUEL AVBL SELF SERVE AFT HRS WITH CREDIT CARD
Parking: tiedowns

Runway Information

Runway 18/36

Dimensions: 5003 x 75 ft. / 1525 x 23 m
Surface: asphalt, in good condition
Weight bearing capacity: 
Single wheel: 30.0
Runway edge lights: high intensity
RUNWAY 18  RUNWAY 36
Latitude: 35-07.615722N35-06.791037N
Longitude: 090-49.584015W090-49.595965W
Elevation: 239.0 ft.229.0 ft.
Traffic pattern: leftleft
Runway heading: 182 magnetic, 181 true002 magnetic, 001 true
Markings: precision, in good conditionprecision, in good condition
Visual slope indicator: 2-light PAPI on left (3.00 degrees glide path)2-light PAPI on left (3.00 degrees glide path)
Runway end identifier lights: yesyes
Touchdown point: yes, no lightsyes, no lights

Airport Ownership and Management from official FAA records

Ownership: Publicly-owned
Owner: DELTA REGIONAL AIRPORT AUTHORITY
21 CR 703
WYNNE, AR 72396
Phone 870-208-6607
Manager: JOHN KERR
21 CR 703
WYNNE, AR 72396
Phone 870-208-6607

Airport Operational Statistics

Aircraft based on the field: 7
Single engine airplanes: 6
Multi engine airplanes: 1
    
Aircraft operations: avg 40/week *
86% local general aviation
14% transient general aviation
* for 12-month period ending 30 April 2017

Instrument Procedures

NOTE: All procedures below are presented as PDF files. If you need a reader for these files, you should download the free Adobe Reader.

NOT FOR NAVIGATION. Please procure official charts for flight.
FAA instrument procedures published for use from 8 November 2018 at 0901Z to 6 December 2018 at 0900Z.

 
IAPs - Instrument Approach Procedures
RNAV (GPS) RWY 18   download (166KB)
RNAV (GPS) RWY 36   download (163KB)
NOTE: Special Take-Off Minimums/Departure Procedures apply   download

Other nearby airports with instrument procedures:

6M7 - Marianna/Lee County Airport-Steve Edwards Field (20 nm S)
M36 - Frank Federer Memorial Airport (22 nm SW)
M60 - Woodruff County Airport (24 nm NW)
KAWM - West Memphis Municipal Airport (29 nm E)
KHEE - Thompson-Robbins Airport (33 nm S)
 
Loc | Ops | Rwys | IFR | FBO | Links
Com | Nav | Svcs | Stats | Notes


 
Aerial photo
No photo
 
Airport distance calculator
Flying to Delta Regional Airport? Find the distance to fly.

From to KDRP

Sunrise and sunset
Times for 21-Nov-2018
 Local
(UTC-6)
 Zulu
(UTC)
Morning civil twilight06:1812:18
Sunrise06:4512:45
Sunset16:5422:54
Evening civil twilight17:2123:21

Current date and time
Zulu (UTC)  21-Nov-2018 21:27:05
Local (UTC-6)  21-Nov-2018 15:27:05
 
METAR
KAWM 
29nm E 
212053Z AUTO 10003KT 8SM CLR 14/03 A3033 RMK AO2 SLP273 T01440033 56018
KUTA 
35nm SE 
212115Z AUTO 00000KT 10SM 11/01 A3036 RMK AO2 TSNO
KM19 
35nm NW 
212056Z AUTO 18005KT 10SM CLR 14/02 A3034 RMK AO2 SLP280 T01390017 56017
KMEM 
42nm E 
212054Z 00000KT 10SM FEW250 13/01 A3034 RMK AO2 SLP274 T01330006 56016
KJBR 
44nm N 
212053Z AUTO 21006KT 10SM CLR 13/04 A3033 RMK AO2 SLP271 T01330039 56017
KSRC 
45nm W 
212056Z AUTO 00000KT 10SM CLR 14/01 A3035 RMK AO2 SLP286 T01440006 56018
KSGT 
48nm SW 
212056Z AUTO 00000KT 4SM HZ CLR 13/01 A3036 RMK AO2 SLP282 T01330011 56017
KNQA 
49nm E 
212050Z 31004KT 10SM CLR 13/02 A3033
TAF
KMEM 
42nm E 
211736Z 2118/2224 33004KT P6SM SCT250 FM220100 VRB02KT P6SM SCT250 FM221500 10005KT P6SM SKC
KJBR 
44nm N 
211736Z 2118/2218 24006KT P6SM SCT250 FM220000 00000KT P6SM FEW250 FM221500 15006KT P6SM SKC
NOTAMs
Click for the latest NOTAMs
NOTAMs are issued by the DoD/FAA and will open in a separate window not controlled by AirNav.

 

 
 

FBO, Fuel Providers, and Aircraft Ground Support

  
 Business Name 
 
 Contact 
 
 Services / Description 
 
Fuel Prices
 
Comments
  
Delta Regional Airport 870-208-6607
no information available

If you are affiliated with Delta Regional Airport and would like to show here your services, contact info, web link, logo, and more, click here
100LL
SS $4.12 
 Updated 01-Aug-2018
 
   1 read write
SS=Self service
Update Fuel Prices
 

Would you like to see your business listed on this page?

 If your business provides an interesting product or service to pilots, flight crews, aircraft, or users of the Delta Regional Airport, you should consider listing it here.  To start the listing process, click on the button below
 
Add a business
 

Other Pages about Delta Regional Airport

Update a link
 
Copyright © AirNav, LLC. All rights reserved. Privacy Policy  Contact